Weather History for LEBA - September, 2013

Change the Weather History Date:

Tuesday, September 17, 2013

  Actual Average Record
Temperature  
Mean Temperature 78 °F -  
Max Temperature 86 °F - - ()
Min Temperature 69 °F - - ()
Cooling Degree Days 12    
Growing Degree Days 28 (Base 50)    
Moisture  
Dew Point 62 °F    
Average Humidity 63    
Maximum Humidity 83    
Minimum Humidity 37    
Precipitation  
Precipitation 0.00 in 0.07 in - ()
Sea Level Pressure  
Sea Level Pressure 29.96 in    
Wind  
Wind Speed 7 mph ()    
Max Wind Speed 13 mph    
Max Gust Speed -    
Visibility 8.2 miles    
Events      
T = Trace of Precipitation, MM = Missing Value Source: Averaged Metar Reports

Daily Weather History Graph

Daily Weather History Graph

Search for Another Location

Airport or City:

Trip Planner

Search our weather history database for the weather conditions in past years. The results will help you decide how hot, cold, wet, or windy it might be!

Date:

Astronomy

Sep. 17, 2013 Rise Set
Actual Time 8:02 AM CEST 8:24 PM CEST
Civil Twilight 7:36 AM CEST 8:50 PM CEST
Nautical Twilight 7:05 AM CEST 9:21 PM CEST
Astronomical Twilight 6:34 AM CEST 9:52 PM CEST
Moon 7:01 PM CEST (9/17) 5:43 AM CEST (9/17)
Length of Visible Light 13h 13m
Length of Day
12h 21m
Waxing Gibbous, 94% of the Moon is Illuminated
Sep 17
Waxing Gibbous
Sep 19
Full
Sep 27
Last Quarter
Oct 5
New
Oct 12
First Quarter

Hourly Weather History & Observations

Time (CEST) Temp. Heat Index Dew Point Humidity Pressure Visibility Wind Dir Wind Speed Gust Speed Precip Events Conditions
12:00 AM 75.2 °F - 59.0 °F 57% 29.95 in - WSW 8.1 mph - N/A   Clear
1:00 AM 71.6 °F - 60.8 °F 69% 29.95 in - West 8.1 mph - N/A   Clear
2:00 AM 71.6 °F - 64.4 °F 78% 29.95 in - West 8.1 mph - N/A   Clear
4:37 AM 71.6 °F - 64.4 °F 78% 29.95 in 6.2 mi WSW 4.6 mph - N/A   Mostly Cloudy
5:00 AM 69.8 °F - 64.4 °F 83% 29.95 in 6.2 mi West 5.8 mph - N/A   Overcast
6:00 AM 71.6 °F - 64.4 °F 78% 29.95 in 6.2 mi WSW 5.8 mph - N/A   Overcast
7:00 AM 71.6 °F - 64.4 °F 78% 29.95 in 6.2 mi WSW 5.8 mph - N/A   Overcast
8:00 AM 71 °F - 64 °F 74% 29.97 in 12 mi WSW 4.6 mph - -   Overcast
8:00 AM 71.6 °F - 64.4 °F 78% 29.98 in 6.2 mi WSW 4.6 mph - N/A   Overcast
9:00 AM 71.6 °F - 62.6 °F 73% 29.98 in 6.2 mi SW 6.9 mph - N/A   Overcast
10:00 AM 71.6 °F - 62.6 °F 73% 29.98 in 6.2 mi SW 6.9 mph - N/A   Overcast
11:00 AM 71.6 °F - 62.6 °F 73% 30.01 in 6.2 mi WSW 6.9 mph - N/A   Overcast
12:00 PM 71.6 °F - 62.6 °F 73% 30.01 in 6.2 mi WSW 6.9 mph - N/A   Overcast
1:00 PM 73.4 °F - 62.6 °F 69% 30.01 in 6.2 mi WSW 6.9 mph - N/A   Overcast
2:00 PM 79 °F - 62 °F 46% 29.99 in 19 mi West 5.8 mph - -   Partly Cloudy
2:00 PM 77.0 °F - 60.8 °F 57% 30.01 in 6.2 mi West 5.8 mph - N/A   Partly Cloudy
3:00 PM 78.8 °F - 60.8 °F 54% 29.98 in - West 8.1 mph - N/A   Clear
4:00 PM 82.4 °F 82.9 °F 60.8 °F 48% 29.95 in 6.2 mi West 8.1 mph - N/A   Partly Cloudy
5:00 PM 84.2 °F 83.8 °F 59.0 °F 42% 29.92 in 6.2 mi WSW 11.5 mph - N/A   Partly Cloudy
6:00 PM 84.2 °F 83.8 °F 59.0 °F 42% 29.92 in - West 12.7 mph - N/A   Clear
7:00 PM 84.2 °F 83.8 °F 59.0 °F 42% 29.92 in - West 12.7 mph - N/A   Clear
8:00 PM 80 °F - 58 °F 37% 29.92 in 19 mi WSW 12.7 mph - -   Clear
8:00 PM 80.6 °F 81.1 °F 59.0 °F 48% 29.92 in - WSW 11.5 mph - N/A   Clear
9:00 PM 77.0 °F - 59.0 °F 54% 29.92 in - WSW 8.1 mph - N/A   Clear